Tracking 19245 objects as of 18-Aug-2018
HD Live streaming from Space Station
objects crossing your sky now

NOAA 16 DEB

Track NOAA 16 DEB now!
10-day predictions


NORAD ID: 41250
Int'l Code: 2000-055FA
Perigee: 832.0 km
Apogee: 908.0 km
Inclination: 99.1 °
Period: 102.2 minutes
Semi major axis: 7241 km
RCS: Unknown
Launch date: September 21, 2000
Source: United States (US)
Launch site: AIR FORCE WESTERN TEST RANGE (AFWTR)

Note: This is SATELLITE DEBRIS
aabbcc
Your satellite tracking list
Your tracking list is empty




NASA's NSSDC Master Catalog

Two Line Element Set (TLE):
1 41250U 00055FA  18228.99293653  .00000785  00000-0  47319-3 0  9996
2 41250  99.0608 312.9156 0052536  99.3050 261.4065 14.08978626137310
Source of the keplerian elements: AFSPC